Theta_e
321 321 321 320 321 320 320 319 323 326 325 326 324 324 322 322 325 325 326 325 324 323 322 323 328 330 327 327 330 332 332 335 336 337 341 336 332 334 331 326 323 322 323 322 321 320 316 314 311 313 324 330 331 332 332 331 329 324 320 317 314 312 317 320 321 321 317 313 311 311 312 313 315 317 316 315 317 316 314 313 318 323 325 326 325 324 322 318 314 316 317 317 319 321 322 323 325
319 321 321 320 322 320 319 321 328 335 333 326 325 324 320 321 324 328 330 327 326 323 322 324 327 328 325 326 327 329 331 332 329 331 335 333 334 333 330 327 323 322 322 322 321 320 317 314 312 311 319 328 329 331 331 331 329 325 321 317 315 312 316 322 324 324 322 318 313 312 314 314 317 319 317 317 320 322 321 316 316 323 327 328 326 322 320 320 321 322 320 319 320 321 322 323 325
318 320 319 320 322 319 320 321 327 333 328 326 330 327 320 322 328 331 328 324 325 325 325 324 326 326 324 327 328 329 331 330 330 332 333 334 334 332 330 327 323 323 322 323 321 319 318 315 313 310 317 326 328 330 330 330 329 325 321 317 315 312 316 321 324 325 324 324 318 313 313 314 318 319 318 319 322 324 325 318 316 322 326 325 323 322 323 324 325 323 320 319 320 321 322 323 326
317 319 318 320 321 320 327 327 332 332 323 325 327 325 323 326 332 328 322 323 325 325 324 325 328 327 325 331 330 328 330 330 331 333 333 334 332 330 329 326 323 323 322 323 321 319 318 316 313 310 316 325 328 329 330 330 327 324 322 318 315 313 313 314 322 326 324 325 323 320 317 315 319 318 314 316 320 322 322 317 317 321 323 323 324 324 325 325 325 322 320 320 320 322 323 323 325
315 317 317 321 321 322 328 325 329 329 323 328 322 323 329 329 329 322 320 325 325 322 324 327 330 328 327 330 328 327 331 332 332 332 332 333 332 330 328 326 323 322 323 322 321 319 318 316 314 310 314 324 328 328 329 329 327 325 322 318 317 314 311 310 319 326 325 323 324 327 325 319 320 321 317 315 318 319 319 317 317 320 321 324 326 325 324 324 325 325 322 320 320 321 322 322 325
314 316 316 320 321 319 324 320 324 328 328 331 321 324 331 324 322 320 322 326 324 321 324 327 327 327 327 329 328 328 332 333 332 332 332 333 332 330 328 326 324 323 322 322 321 319 319 317 314 311 311 320 327 327 328 328 327 328 324 320 320 316 311 310 314 322 325 321 322 328 328 324 321 319 318 318 319 318 318 317 316 320 322 324 326 326 325 325 324 324 321 320 321 321 320 321 323
314 317 317 321 320 319 328 325 328 335 326 322 320 327 326 317 318 321 323 323 322 321 324 327 325 327 330 330 331 331 333 333 331 332 333 333 332 330 329 327 325 323 322 322 321 319 319 317 314 311 310 315 323 326 327 326 327 329 327 324 323 316 312 310 311 316 320 320 321 325 328 327 321 316 316 316 316 315 317 319 318 320 323 322 323 324 325 323 322 321 320 320 322 323 322 322 322
315 317 317 323 323 323 331 326 330 334 321 314 315 321 319 315 318 321 322 321 323 322 324 326 325 329 331 328 331 332 332 332 332 333 333 333 332 330 329 327 326 323 322 322 321 320 319 318 314 312 310 311 315 321 326 326 326 329 328 327 325 317 312 311 310 310 313 317 318 323 328 326 319 316 316 315 315 315 316 317 316 318 321 320 319 321 321 321 320 318 318 320 322 322 323 323 323
315 318 318 322 324 326 332 327 325 326 322 318 315 316 316 317 320 320 321 321 321 322 325 326 324 325 329 327 330 330 331 333 332 333 332 332 332 330 329 328 326 324 323 321 321 320 319 318 314 312 311 309 312 314 322 326 325 327 327 328 326 318 312 310 310 309 309 313 315 320 326 322 318 317 316 315 317 317 316 315 315 316 318 318 318 318 318 318 318 317 318 320 321 321 322 323 324
315 320 317 322 326 323 325 328 327 323 322 318 314 316 317 318 320 319 321 321 321 323 326 325 322 323 328 329 329 328 330 332 332 333 332 332 331 330 330 329 328 324 322 321 321 320 319 319 314 313 312 310 311 312 318 324 325 326 326 329 326 318 313 310 310 310 308 310 312 316 319 319 318 317 316 317 317 317 316 316 315 314 315 316 316 315 315 315 316 316 317 318 319 320 321 322 322
317 320 317 323 328 323 322 328 335 332 324 317 315 317 318 320 320 319 319 321 322 324 326 324 324 326 328 328 329 327 328 331 332 332 331 331 331 330 330 329 329 325 322 321 321 320 319 318 314 313 312 310 310 311 314 319 325 325 326 329 325 316 313 310 310 310 309 308 309 311 313 315 317 317 318 318 318 318 318 317 316 315 315 315 314 314 314 315 315 315 316 317 318 318 320 321 321
315 321 327 330 327 325 325 327 335 337 329 324 321 319 319 321 321 319 319 321 322 322 323 324 324 326 329 329 329 327 326 331 331 331 330 331 331 330 330 330 329 326 323 321 320 320 319 319 315 312 313 311 310 311 311 314 321 322 325 328 323 317 312 310 310 309 309 309 308 308 310 314 316 317 318 318 318 318 318 318 317 316 316 315 315 315 315 315 315 315 315 316 316 317 318 319 319
316 322 329 326 322 323 324 326 329 330 328 326 321 319 320 320 321 320 319 320 320 322 322 323 323 325 332 331 328 327 326 329 331 331 330 331 331 330 331 331 330 326 323 321 321 320 320 319 316 313 313 312 310 311 311 311 314 317 323 325 320 316 312 310 310 310 310 309 309 308 310 314 315 317 318 318 319 319 319 319 318 318 317 316 316 315 315 315 315 315 315 315 315 316 316 316 316
318 321 325 322 320 324 325 325 323 322 325 324 318 318 321 321 321 320 320 322 320 321 321 322 324 324 328 329 328 325 324 328 330 331 330 330 331 330 331 331 330 327 324 322 321 321 320 320 317 314 312 312 311 310 311 311 312 313 318 319 317 315 312 311 310 310 310 309 309 308 310 313 315 316 317 319 319 319 320 319 319 319 318 318 317 316 316 316 316 316 316 316 315 315 315 315 315
319 319 326 327 322 323 323 322 322 324 325 323 318 319 321 321 321 319 320 324 321 321 320 322 325 323 324 327 328 321 321 326 328 331 331 329 330 330 332 331 330 327 325 323 322 322 321 320 318 314 313 312 311 311 311 311 312 312 313 314 314 313 312 312 311 310 310 309 309 308 309 312 314 315 317 319 319 319 319 320 320 320 319 319 318 317 317 317 317 318 318 317 317 316 316 316 317
319 317 325 328 322 321 320 318 320 324 323 317 316 318 321 320 320 318 318 322 321 320 321 323 325 324 322 323 323 319 320 323 325 331 331 328 330 331 332 332 331 329 327 325 323 322 321 320 318 315 313 312 312 311 312 312 312 311 312 312 312 312 312 312 311 311 311 310 309 309 309 311 313 314 316 318 318 319 319 319 320 319 319 319 319 318 318 318 318 319 319 319 318 318 318 318 318
317 318 325 326 323 322 320 320 319 322 323 316 313 317 321 320 318 317 317 320 320 320 322 324 325 323 322 322 322 321 321 322 324 329 331 329 330 332 333 332 332 331 330 327 324 323 322 321 319 316 313 312 313 311 311 312 312 312 312 312 312 313 312 312 311 311 311 311 310 309 309 310 312 313 315 317 318 318 318 318 319 318 319 319 319 319 319 319 319 319 318 318 318 318 318 318 318
317 322 325 325 326 325 323 322 317 317 321 315 313 316 320 321 317 316 318 318 319 321 323 324 325 323 323 323 322 322 321 321 322 327 330 329 329 331 332 332 333 332 332 329 326 324 323 322 319 317 313 312 313 312 311 312 312 313 313 313 313 312 312 311 311 311 311 311 310 309 309 309 311 313 314 315 316 317 318 318 318 318 318 318 318 318 318 318 318 318 318 318 318 318 318 318 318
319 323 324 330 330 323 319 318 314 314 317 314 314 315 317 320 317 316 319 319 320 323 323 322 324 324 323 323 322 323 322 322 322 325 328 327 327 329 330 332 332 332 332 330 327 324 323 322 320 317 314 312 313 313 312 312 312 312 312 312 312 312 311 311 311 311 311 311 311 310 309 309 310 312 313 314 316 316 317 318 318 318 319 319 319 319 319 319 318 319 318 319 319 319 319 319 319
317 318 325 334 325 317 316 315 315 314 314 313 314 315 315 317 317 317 318 320 321 323 322 321 323 323 323 323 323 323 324 323 322 324 326 326 326 326 327 328 329 331 330 329 327 325 324 323 321 318 315 313 313 313 313 313 313 313 313 312 312 312 313 313 313 312 311 311 311 311 310 310 309 310 312 313 315 316 317 318 318 318 318 318 318 319 319 319 319 319 319 319 319 319 320 320 319
315 315 328 331 315 314 317 314 314 313 313 313 313 315 314 315 316 317 317 321 323 320 319 320 321 321 322 323 324 324 324 325 324 324 324 325 325 325 325 325 326 327 328 329 328 326 325 323 322 319 316 314 313 314 314 315 315 315 315 315 315 315 316 316 316 316 314 312 311 311 311 311 310 310 311 312 313 314 316 317 317 317 317 317 317 318 318 319 319 319 319 319 319 319 319 319 319
315 315 321 322 313 313 315 313 314 313 313 313 313 314 315 315 315 316 317 321 322 319 318 319 318 319 320 321 323 324 324 324 325 325 324 323 323 323 324 324 325 325 326 328 327 327 326 324 323 320 317 315 315 315 315 317 317 318 318 319 319 319 319 319 319 320 319 317 315 312 311 311 311 311 311 311 312 313 314 315 316 316 317 317 317 317 318 318 319 319 319 319 319 319 319 318 318
317 319 316 316 314 313 314 314 313 313 313 313 313 315 315 315 315 315 316 319 318 318 319 318 318 318 319 320 321 323 323 323 323 323 322 321 321 321 322 323 323 323 323 324 325 327 327 326 324 321 318 315 316 317 317 318 319 320 320 320 321 321 321 321 321 321 321 321 320 318 314 312 311 311 311 311 311 312 313 314 315 316 316 317 317 317 318 318 318 318 318 318 318 318 318 318 318
315 320 317 316 314 312 313 314 313 313 313 313 314 314 314 315 316 314 315 318 318 317 318 318 318 318 319 320 320 321 321 321 321 320 319 320 320 320 320 321 321 320 320 321 323 325 327 327 326 323 319 316 316 318 318 319 320 320 321 321 321 322 321 321 322 322 322 322 322 321 320 317 315 313 312 312 312 312 312 313 314 315 315 315 316 316 317 317 317 317 316 317 317 317 317 317 317
314 318 317 315 313 313 313 313 313 313 313 314 314 313 314 315 314 313 315 318 317 317 318 317 318 318 318 319 320 320 320 321 321 321 321 321 323 323 323 322 321 321 320 320 321 322 324 326 326 325 321 317 316 318 319 320 321 321 322 322 322 322 322 322 322 322 322 322 322 322 322 321 320 319 316 314 314 313 313 313 313 314 314 314 315 315 315 316 316 315 316 316 316 316 316 316 316
313 315 314 313 313 313 313 313 313 313 313 314 313 313 313 313 313 314 316 317 317 317 317 317 317 318 319 318 319 320 320 320 321 322 322 323 324 325 324 323 322 321 320 320 321 321 322 324 325 325 323 318 316 318 319 320 321 322 322 323 323 323 322 322 322 322 322 322 323 323 322 323 322 322 321 319 318 317 315 314 313 314 314 314 314 315 315 315 315 315 315 316 316 316 316 316 317
312 312 313 314 315 313 312 313 313 313 313 313 314 314 312 312 313 316 318 316 316 317 317 316 316 318 318 318 318 319 319 319 320 321 322 323 323 324 323 323 322 320 320 320 321 321 322 323 323 323 323 320 317 317 319 320 321 321 323 324 325 325 324 324 324 323 322 322 322 322 322 323 323 323 323 323 322 321 320 318 317 316 315 315 315 315 315 316 316 316 317 318 318 318 318 318 319
311 311 313 314 314 314 313 312 313 313 313 313 313 313 311 312 314 316 316 315 316 316 316 316 315 317 318 318 318 319 319 319 320 321 321 321 320 320 321 321 321 320 320 320 320 321 322 322 321 320 321 321 318 316 318 319 320 321 322 324 325 326 325 325 324 324 323 322 322 321 322 322 322 323 323 323 323 323 323 322 322 321 320 319 318 318 318 318 318 319 320 321 321 321 321 321 321
311 312 315 315 314 315 314 312 312 313 313 313 312 314 314 314 315 316 315 315 315 314 315 316 315 315 316 318 318 318 319 319 320 320 319 319 318 319 319 318 319 319 318 319 321 322 322 322 321 319 319 320 319 316 316 317 319 321 322 322 323 325 325 325 324 323 323 323 323 322 322 322 322 322 323 323 323 323 323 323 323 322 322 321 321 320 320 320 321 321 322 322 322 322 322 322 322
313 313 314 316 314 315 313 311 312 312 313 313 312 316 319 317 315 314 314 314 314 314 314 315 315 315 315 316 318 318 318 319 319 318 318 318 318 319 318 318 318 318 318 319 320 320 321 321 321 320 318 318 318 317 316 317 319 321 322 322 322 323 323 323 323 323 323 323 323 323 323 322 322 322 323 323 323 323 323 323 323 323 323 322 322 322 322 322 322 322 322 322 322 322 322 322 322
315 313 313 315 316 318 316 310 311 313 313 313 312 316 320 319 314 313 314 314 314 314 314 314 315 314 315 316 316 317 317 317 317 317 317 317 318 318 318 319 319 318 318 318 318 318 319 321 320 320 318 317 317 317 317 317 319 320 321 322 322 322 322 322 323 322 322 322 322 322 323 323 322 322 323 323 323 323 323 323 323 323 323 323 323 323 323 322 322 322 322 322 322 322 322 322 322
316 315 316 316 314 320 319 310 310 314 313 311 312 316 318 316 314 313 314 314 314 314 314 314 314 314 315 315 316 316 316 316 316 316 317 317 318 318 318 318 318 318 318 317 317 318 319 319 320 319 318 317 317 317 317 317 318 319 320 321 321 321 322 321 322 322 322 322 322 322 322 322 322 322 323 323 323 323 323 323 323 323 323 323 323 323 323 323 323 322 322 322 322 322 322 323 323
315 316 318 318 315 317 317 312 310 312 312 312 312 315 319 316 311 312 313 312 313 313 314 314 314 314 315 315 315 315 316 316 316 316 316 316 317 317 317 317 317 317 317 317 317 318 318 318 319 319 318 318 317 317 317 317 318 319 319 320 320 321 321 321 321 321 321 321 322 321 322 322 322 322 323 323 323 324 324 324 324 324 324 323 323 323 323 323 323 323 323 323 323 323 323 323 323
315 315 317 318 316 314 314 314 312 310 311 313 312 313 318 317 311 311 312 312 312 312 313 314 314 315 314 315 315 315 315 315 315 315 315 315 316 316 316 316 316 317 317 317 317 317 317 318 318 318 318 318 318 318 318 318 318 319 319 320 320 320 320 320 321 320 320 320 321 321 322 322 322 322 322 322 322 323 324 324 325 325 325 324 324 324 324 324 324 324 324 324 323 323 322 323 323
315 315 315 315 314 313 314 315 313 311 312 314 314 313 315 317 312 311 312 312 312 312 312 313 314 315 315 315 315 315 315 315 315 315 315 315 315 315 316 316 316 316 316 317 317 317 317 318 318 318 318 318 318 318 319 319 319 319 320 320 320 320 320 320 320 320 319 320 320 321 322 322 322 322 322 322 322 322 322 323 324 324 325 325 325 324 324 324 324 324 324 323 323 322 321 322 323
316 314 314 314 314 313 314 315 312 310 312 313 314 314 314 315 314 312 312 311 311 312 312 312 313 314 314 314 315 315 315 315 315 315 315 315 315 315 315 316 315 315 316 316 316 317 316 317 318 318 318 318 318 318 319 320 320 320 320 320 319 319 319 320 320 319 319 319 319 320 321 321 322 322 323 323 322 322 322 321 322 323 323 324 324 324 324 323 323 323 323 323 323 322 320 321 321
315 313 313 313 314 313 313 315 312 308 312 314 313 313 314 315 315 313 311 310 310 310 311 312 313 314 314 314 314 314 315 315 315 315 315 315 315 315 315 315 316 316 315 316 315 315 315 316 317 317 317 317 318 318 318 319 319 319 319 319 318 318 319 319 318 318 318 318 319 320 320 320 320 321 322 323 323 322 322 323 323 324 323 322 322 322 322 322 321 321 321 322 323 321 321 321 320
313 314 313 313 314 314 313 313 312 309 311 316 314 313 313 313 314 313 310 309 309 309 310 311 313 314 314 313 314 314 315 315 315 315 315 315 315 315 315 315 315 315 315 315 314 314 314 314 314 315 315 317 318 317 318 318 318 318 318 317 317 318 318 317 317 317 317 318 319 319 318 319 319 320 321 321 322 322 323 323 324 325 324 323 322 321 321 322 321 321 321 321 321 320 321 322 319
313 314 314 314 314 314 313 313 313 311 311 316 316 313 314 313 312 311 309 309 310 311 311 312 314 313 313 314 314 315 314 315 315 315 315 315 315 315 314 315 314 315 314 314 314 314 313 313 313 314 314 316 316 316 316 316 316 317 317 318 319 320 319 318 318 318 318 318 319 319 319 319 319 320 321 321 322 323 324 323 324 324 324 323 322 321 320 321 322 322 322 321 321 320 321 320 319
313 314 315 315 314 313 313 312 312 312 311 314 314 313 314 313 312 312 310 309 311 312 312 313 313 313 313 314 314 315 314 315 315 315 316 315 315 315 314 314 314 314 314 314 314 314 313 312 312 313 313 314 315 315 315 315 316 317 319 321 322 323 323 321 321 320 319 319 319 319 319 319 319 320 320 322 323 323 324 325 324 323 323 323 323 322 321 321 321 322 323 324 322 322 323 321 318
313 313 314 315 315 313 313 313 312 313 312 311 312 314 314 314 314 314 312 309 308 311 311 311 312 313 313 313 313 314 314 315 315 315 315 315 315 315 314 314 314 314 314 314 313 313 313 312 312 312 313 313 313 314 314 315 317 318 321 324 326 326 325 323 321 319 317 317 317 318 318 319 320 320 321 321 322 323 324 325 325 323 323 323 323 324 323 321 321 321 322 323 322 323 323 321 319
313 313 313 315 317 315 313 314 313 313 315 313 313 314 317 321 320 314 313 311 309 309 308 308 312 313 312 312 313 314 315 315 315 315 315 315 315 315 315 314 314 314 314 314 314 313 313 312 312 312 312 312 313 313 314 315 317 318 321 323 324 324 322 319 317 315 315 315 316 316 318 319 320 321 321 321 322 323 324 325 325 324 323 323 322 322 322 322 322 321 320 319 320 323 322 321 321
313 313 313 313 314 314 314 316 314 315 318 314 312 312 318 324 320 315 316 314 313 311 307 307 310 311 311 312 314 315 315 315 315 315 315 315 315 315 314 314 314 314 314 314 314 314 313 313 313 312 312 312 312 313 313 314 316 317 319 319 320 320 319 316 315 315 315 315 316 316 317 318 319 320 321 321 322 323 324 324 324 323 323 323 322 322 324 324 322 321 322 321 321 320 319 320 323
314 314 315 314 312 313 315 316 316 317 317 315 313 312 314 316 315 317 318 315 316 314 312 309 308 310 312 313 315 315 315 316 315 315 315 315 315 315 315 315 314 314 314 314 314 314 314 313 313 313 313 312 312 312 313 313 314 316 317 318 318 318 318 317 317 317 318 318 318 318 318 317 318 319 319 320 321 321 323 323 322 323 323 322 323 324 324 325 323 319 321 323 322 320 319 319 320
315 313 316 315 313 314 315 315 316 316 315 315 315 312 312 315 318 320 317 314 315 315 316 313 308 311 313 313 315 315 314 315 315 315 315 315 315 315 315 314 314 314 314 314 314 314 314 313 314 313 314 313 313 313 313 313 314 314 315 316 317 317 318 319 320 321 321 321 321 320 319 319 318 318 318 319 319 320 322 321 322 324 325 324 327 327 325 325 324 321 321 323 321 321 322 320 319
311 311 316 318 318 318 315 315 315 314 313 315 317 314 312 317 320 318 313 313 314 314 317 314 308 311 314 314 314 314 315 314 314 314 314 314 314 314 314 314 314 315 314 314 314 314 314 314 314 314 314 314 314 314 313 313 313 314 315 315 316 317 318 320 322 323 323 323 323 321 320 319 319 319 319 319 319 320 320 321 322 323 324 324 326 326 324 323 322 322 323 323 322 322 322 320 321
309 313 318 317 320 321 317 320 318 313 314 314 316 316 312 315 318 315 314 316 317 315 316 314 310 310 312 313 313 313 314 314 314 314 314 314 315 314 314 314 314 314 314 315 314 314 314 314 314 314 314 314 314 314 314 314 314 314 314 315 315 316 317 319 321 322 323 323 323 321 320 320 320 320 320 320 320 320 320 322 322 322 323 323 322 325 325 320 319 322 324 324 323 321 319 320 321
310 317 318 315 319 318 317 322 317 312 315 313 313 315 312 314 315 313 314 317 318 315 315 317 313 310 311 312 313 313 313 314 313 314 314 315 315 314 314 314 313 314 313 314 314 314 314 314 314 314 314 314 314 314 314 315 315 315 315 315 316 316 317 318 319 320 321 321 322 322 322 322 322 322 322 322 321 321 321 322 322 322 322 321 321 326 326 322 320 322 323 323 322 320 319 319 319
312 316 315 313 317 315 314 318 315 315 316 311 311 313 312 313 315 314 315 316 314 310 310 313 311 309 311 312 313 313 314 314 314 314 314 315 315 314 314 314 314 314 314 314 314 314 314 314 314 314 314 314 314 314 314 314 315 315 315 315 315 316 317 318 319 320 321 321 322 323 323 323 324 324 324 323 323 323 323 323 323 322 322 321 321 323 324 324 323 321 320 321 320 319 320 319 320
312 312 312 313 315 314 313 315 315 317 317 311 310 311 313 316 316 316 318 315 313 309 307 309 309 309 311 312 313 313 313 314 314 314 314 314 315 315 314 313 313 314 314 314 314 314 314 314 314 314 314 314 314 314 314 314 314 314 315 316 316 317 318 319 320 321 322 323 324 324 324 324 325 325 326 325 324 324 324 324 325 323 322 323 322 321 323 325 324 321 321 322 321 322 322 322 323
311 313 314 313 315 316 316 315 317 318 316 312 309 312 318 320 316 314 312 310 311 310 309 310 310 310 311 311 312 312 313 314 314 314 314 314 315 314 314 314 313 314 314 314 314 314 314 314 314 314 314 314 314 314 314 314 314 314 315 316 317 318 320 321 322 323 323 324 325 325 326 326 327 327 327 327 325 326 325 324 325 323 322 323 323 322 323 324 323 323 323 324 324 323 323 322 322
312 315 315 313 317 323 319 314 317 319 317 313 311 315 320 319 315 311 308 308 310 308 309 311 310 312 311 310 312 312 313 313 313 314 314 314 314 314 315 314 314 314 314 314 314 314 314 314 314 314 314 314 314 314 314 314 314 314 315 316 317 318 320 321 323 323 324 325 325 326 327 328 328 328 328 327 326 326 325 325 326 323 320 322 325 324 321 321 322 323 324 324 324 323 323 322 321
313 313 313 312 316 324 320 312 311 313 315 315 313 315 318 316 314 313 311 312 312 310 308 308 309 311 311 310 312 313 313 313 313 313 314 314 314 314 314 314 314 314 314 314 315 314 315 315 315 315 315 315 315 314 314 314 314 315 315 316 317 318 320 321 322 323 324 325 326 327 328 328 328 327 327 327 326 326 326 326 325 323 322 322 324 323 321 321 323 324 324 324 323 323 322 321 319
314 313 313 311 313 319 320 316 312 311 314 317 316 314 315 316 315 316 315 313 314 315 312 306 306 309 309 311 313 313 313 313 313 313 314 314 314 313 313 314 313 314 313 313 314 313 314 314 314 315 315 316 316 315 315 315 315 315 315 316 317 318 320 320 321 322 324 325 327 327 327 326 326 326 326 326 325 325 326 326 323 322 324 323 321 321 322 323 324 324 324 322 322 322 320 317 315
311 312 313 314 315 315 315 316 315 313 313 317 319 314 313 315 316 316 315 314 315 315 313 310 308 307 308 312 314 313 313 313 313 313 314 313 313 312 312 314 314 314 313 313 313 313 313 313 313 313 313 314 315 316 316 316 315 316 316 317 318 318 319 319 320 321 322 324 325 325 325 324 325 326 326 325 324 324 326 327 322 320 323 323 322 322 323 323 323 323 323 322 321 319 316 313 312
309 310 310 313 316 315 315 315 314 316 315 316 319 316 313 314 316 317 316 317 318 313 313 316 311 307 310 313 313 313 313 312 313 313 314 313 312 311 312 314 314 314 314 314 314 313 313 312 312 312 312 312 313 315 315 316 316 316 316 317 317 317 316 316 317 318 320 321 322 323 324 324 326 327 324 323 324 326 327 325 323 321 323 324 324 324 323 323 323 323 322 318 316 315 313 312 310
311 312 311 311 311 314 317 314 313 317 318 317 317 314 316 319 317 315 314 315 316 314 315 316 310 307 311 312 312 313 313 312 313 313 313 313 311 311 312 314 315 315 315 315 315 314 314 312 311 311 311 311 311 312 313 313 314 314 315 315 315 314 314 314 315 317 319 321 321 322 323 324 325 325 323 323 326 327 325 322 321 322 323 323 323 322 322 321 321 320 316 313 312 312 311 310 308
312 312 312 312 312 315 316 313 313 316 316 319 317 311 317 322 314 311 314 315 313 313 312 310 309 309 311 311 311 312 313 312 313 313 314 313 312 311 312 314 315 315 315 315 315 315 314 313 313 312 311 310 310 310 311 311 312 313 313 313 313 313 313 313 315 317 319 320 321 322 322 322 323 323 323 325 326 324 321 320 320 321 322 321 320 319 319 317 316 314 312 310 310 309 308 306 304
Wind_Speed
7 7 7 6 8 7 7 7 2 2 4 2 2 0 2 2 2 2 3 1 2 2 4 8 13 18 8 3 7 5 5 6 6 4 3 7 17 21 17 16 15 14 12 11 9 8 8 8 9 12 13 11 10 8 5 3 4 4 6 8 10 10 10 10 10 11 11 13 14 13 13 13 13 13 13 14 14 13 14 14 14 14 14 14 14 14 15 15 16 16 16 16 16 17 17 17 16
6 6 6 5 7 7 4 5 2 2 5 2 3 2 2 2 2 5 6 4 3 5 9 15 17 15 6 5 8 5 5 4 5 5 7 16 22 20 17 16 15 14 12 10 9 8 8 8 8 10 13 12 10 8 5 3 3 3 5 7 8 10 10 10 11 11 12 13 13 14 13 14 14 13 14 15 15 14 15 14 14 15 15 15 15 15 16 16 16 16 16 16 16 17 17 16 16
6 6 5 4 5 5 2 4 2 1 4 1 4 3 1 1 5 6 7 4 9 15 16 17 13 9 5 5 5 2 3 3 6 9 15 22 22 20 19 16 15 13 11 10 9 8 7 7 6 9 13 12 10 8 5 3 2 3 5 7 8 10 10 10 11 11 12 13 13 13 14 14 14 15 16 16 15 15 16 15 15 15 15 15 15 16 16 16 16 16 17 16 16 17 16 16 16
6 5 4 2 3 4 3 4 2 4 1 2 3 4 2 5 7 6 5 10 18 16 12 11 7 4 2 2 2 2 3 4 9 14 20 23 21 21 20 17 16 14 12 10 8 7 6 6 6 8 13 12 10 9 6 3 1 2 5 7 8 10 11 10 11 11 12 12 12 13 13 14 15 16 16 16 16 16 16 16 16 15 15 16 16 16 16 16 16 16 16 16 16 16 15 15 15
7 5 3 2 2 2 3 3 2 4 1 3 0 5 5 5 6 5 7 16 16 6 5 7 4 4 4 3 2 1 3 6 12 17 21 23 20 20 20 18 16 14 12 10 8 7 6 5 5 7 12 12 10 9 7 4 2 2 4 7 8 9 10 10 10 11 11 12 13 13 12 13 16 16 16 17 16 16 16 16 16 15 15 16 16 15 16 16 16 16 16 16 16 16 15 15 15
6 4 2 0 2 2 2 1 1 1 4 5 2 5 5 6 7 9 12 16 8 1 4 5 5 6 5 4 3 4 6 6 13 18 22 23 20 20 19 18 16 14 12 10 8 6 5 5 4 6 11 13 11 9 7 4 2 1 4 6 7 9 10 10 10 11 11 11 13 13 12 13 15 16 16 16 16 16 16 16 15 15 15 15 15 15 15 15 15 15 15 15 16 17 16 15 15
5 3 2 2 3 3 2 2 3 3 4 5 4 5 5 7 11 12 12 10 5 4 5 5 8 8 4 4 5 6 6 5 12 18 22 23 21 20 19 17 16 14 12 10 8 6 5 4 4 4 8 12 13 11 8 6 3 2 3 4 6 8 9 9 9 10 11 11 12 13 13 13 13 14 15 15 15 15 14 14 15 14 14 14 14 14 14 14 14 14 14 15 15 16 16 15 15
5 2 2 3 2 4 3 1 3 3 3 3 4 5 5 11 16 13 9 6 4 5 5 8 10 5 2 4 4 6 6 8 14 19 22 22 22 20 18 17 16 15 13 11 9 6 5 4 4 4 5 9 12 12 10 7 6 4 3 3 5 7 8 8 8 9 10 10 11 13 13 12 11 13 13 13 13 13 13 14 14 13 13 13 13 13 13 14 13 13 13 14 14 15 15 14 14
4 2 2 3 2 2 2 2 3 3 4 4 4 6 5 13 17 11 8 4 4 6 8 13 7 1 5 5 5 7 8 11 17 20 22 21 22 19 17 17 14 14 13 12 9 7 5 3 4 4 4 7 9 11 11 9 7 5 3 3 5 6 7 7 7 8 8 9 11 12 12 11 11 12 12 12 12 13 13 13 13 13 12 12 12 12 13 13 12 12 12 13 13 13 13 12 11
4 2 1 2 2 2 2 3 2 3 4 5 6 6 6 16 16 9 7 3 4 7 12 12 3 3 9 7 6 9 10 14 20 22 21 21 20 18 17 15 13 12 12 12 10 7 5 3 4 5 4 6 8 9 10 10 8 6 4 4 5 5 6 6 6 6 7 7 9 11 11 10 11 12 12 12 12 12 13 13 12 12 12 11 11 12 11 12 12 12 12 11 11 11 11 11 9
4 3 3 3 3 2 2 4 4 4 5 5 5 4 9 17 13 8 6 3 5 8 12 10 2 9 10 5 7 10 13 17 21 22 21 21 19 18 16 15 14 12 11 11 10 8 6 3 3 5 5 5 7 8 9 9 9 8 6 5 5 5 6 5 5 5 6 7 7 8 9 9 11 12 12 12 12 12 12 12 12 11 11 11 11 11 11 11 11 11 11 10 10 9 9 9 8
3 2 4 3 2 3 4 3 4 5 6 4 2 4 11 16 10 6 6 5 7 6 10 9 5 11 6 1 7 11 16 18 21 20 20 21 19 18 16 15 14 12 12 11 10 9 7 4 3 4 6 5 7 8 9 9 8 8 8 7 5 4 5 5 4 4 5 6 5 6 7 9 11 11 11 11 11 11 11 11 11 11 10 10 10 10 11 11 11 11 11 10 9 9 9 8 7
2 1 4 2 2 2 3 2 4 5 5 3 3 6 12 15 9 7 8 6 8 5 8 9 7 10 4 2 8 14 18 19 22 19 20 21 19 18 16 15 14 14 13 12 11 9 8 5 3 4 5 6 7 8 9 9 8 7 8 7 4 3 4 4 4 4 5 5 5 5 6 8 10 10 11 10 10 10 10 10 10 10 10 10 10 10 10 10 10 10 10 10 10 9 9 9 8
2 2 3 2 1 2 4 1 2 1 4 5 3 10 14 12 9 9 8 6 9 8 7 10 10 8 4 3 8 17 21 21 23 19 20 21 19 19 17 17 15 15 14 13 13 10 9 7 4 4 5 6 6 8 9 9 8 7 7 5 3 3 4 4 4 4 4 5 4 5 6 8 9 9 10 9 9 9 10 9 9 9 9 9 9 9 9 9 9 9 10 10 10 10 10 10 10
2 2 3 3 2 1 3 1 1 3 4 4 4 12 14 11 9 9 10 8 10 11 8 9 12 6 4 6 7 18 24 22 24 21 21 21 20 20 18 18 16 16 15 15 14 12 11 8 6 5 5 7 6 8 9 9 9 7 7 5 4 4 4 4 4 4 5 5 4 5 6 7 8 9 9 9 9 9 9 9 8 8 8 9 8 8 8 8 8 8 9 10 10 11 11 11 11
1 2 3 2 1 1 3 2 3 3 5 4 6 12 12 10 11 7 10 11 9 11 10 10 16 8 4 8 4 15 25 23 25 22 21 22 21 21 19 19 18 17 17 17 16 14 12 10 8 6 6 8 7 8 9 9 9 8 7 6 6 5 5 4 4 4 5 5 5 5 5 6 7 8 8 8 8 8 8 8 7 7 7 8 8 8 8 7 7 8 8 9 10 10 11 11 11
2 2 2 1 3 3 4 4 4 3 4 4 6 13 11 7 11 8 8 13 10 11 14 10 17 15 6 8 5 13 25 23 25 24 22 24 24 24 22 22 21 20 19 19 18 16 15 12 10 8 7 8 9 9 9 9 9 8 8 7 7 6 5 5 4 4 5 5 5 5 6 6 7 7 8 8 7 7 7 6 6 7 6 6 7 7 7 6 6 6 7 8 8 9 9 9 10
2 2 2 2 3 3 4 5 5 3 2 2 7 13 11 7 11 10 7 10 10 11 16 12 15 18 10 8 7 14 26 25 26 26 25 27 27 27 26 25 23 23 22 21 20 18 17 14 12 9 9 10 10 10 9 9 9 9 8 7 7 6 6 5 5 5 5 5 5 6 6 6 7 7 7 8 7 7 6 5 5 5 5 5 5 5 5 5 5 5 5 6 7 7 8 8 8
2 2 2 3 4 3 3 4 5 3 3 3 6 11 11 9 13 13 6 6 8 8 12 12 14 18 14 11 9 15 26 26 27 27 28 30 31 30 29 27 26 25 24 22 21 20 19 16 14 11 10 10 11 11 10 10 9 9 8 7 7 6 6 5 5 5 5 5 5 6 5 6 6 7 7 7 7 6 6 5 4 4 3 3 3 3 3 3 3 4 4 4 5 6 6 7 7
3 2 1 3 4 4 5 4 4 4 5 5 5 9 11 10 13 14 8 5 7 9 14 14 16 20 17 14 11 17 26 26 26 27 28 31 31 31 30 29 28 27 25 23 22 20 20 18 15 12 11 11 12 12 11 11 10 9 8 8 7 7 6 5 5 5 5 5 5 6 5 6 6 6 6 6 6 6 5 4 3 3 2 2 2 2 1 2 2 2 3 3 4 5 6 7 7
3 3 4 5 2 3 7 5 3 5 5 6 4 6 9 11 13 14 10 6 4 15 24 22 21 22 19 16 14 19 25 26 27 27 28 29 31 31 30 29 27 26 25 23 22 21 20 19 17 15 13 13 13 13 12 11 11 10 9 9 8 8 7 6 5 4 4 4 4 5 5 5 5 5 5 6 5 5 5 5 4 3 2 2 1 1 1 0 1 2 2 3 4 5 5 6 7
3 2 7 11 5 3 9 5 2 6 4 6 5 5 7 11 13 16 15 9 8 18 26 25 22 21 20 19 17 21 25 26 27 28 28 28 30 31 30 29 27 26 25 24 24 22 20 19 18 17 15 15 14 13 13 12 12 11 10 10 9 8 7 7 6 5 4 3 3 3 4 4 5 5 5 5 5 5 5 5 4 4 3 3 2 2 2 2 2 2 3 3 4 4 5 6 6
2 2 5 12 11 7 11 9 7 10 5 6 6 7 9 11 9 14 19 18 13 13 18 22 22 19 19 20 19 21 24 26 27 27 27 27 28 30 29 29 28 27 25 24 23 22 21 21 20 19 18 17 16 15 15 14 13 12 11 11 10 9 8 7 6 5 5 4 3 3 3 3 4 4 5 5 5 6 6 5 5 5 4 4 3 3 3 3 3 3 3 4 4 5 5 6 7
2 3 4 10 11 10 11 13 13 11 7 8 7 8 11 14 8 7 20 28 20 9 9 15 20 19 19 21 20 21 22 23 24 24 25 25 25 26 26 27 26 25 24 23 22 22 22 21 21 20 19 18 17 17 16 16 15 13 13 12 11 10 9 8 7 6 6 5 4 3 3 3 3 3 4 5 6 6 7 6 6 5 5 5 4 4 4 4 4 4 4 5 5 6 6 6 7
3 3 4 5 7 10 13 15 14 11 7 7 8 8 8 14 9 5 18 27 22 15 10 9 16 21 21 22 21 21 23 23 24 24 25 26 26 26 26 25 24 24 23 22 22 22 22 21 22 22 21 20 19 19 18 17 16 15 14 13 12 12 10 9 9 8 8 7 6 5 4 3 3 3 4 5 6 6 7 7 6 6 7 6 6 5 6 6 6 6 5 5 6 6 7 7 7
6 5 5 4 8 13 15 13 10 8 6 5 8 4 3 10 7 8 20 22 18 19 16 11 14 20 22 22 22 22 23 24 25 26 26 26 27 28 28 26 26 25 22 21 21 21 21 21 22 23 22 21 21 20 20 18 17 16 15 14 13 13 12 11 11 11 10 9 8 7 7 6 5 5 5 5 6 6 7 6 7 7 7 7 7 7 7 7 7 7 7 6 6 7 7 8 7
4 2 7 8 9 14 13 9 9 8 5 5 8 2 0 6 4 7 16 15 16 20 20 16 15 19 23 22 23 23 24 24 25 26 27 29 30 30 30 29 28 25 23 23 22 21 20 22 23 23 23 23 23 22 21 20 19 17 15 15 14 14 13 13 13 12 12 11 10 9 9 8 8 8 8 7 7 8 7 7 7 7 6 7 8 8 8 8 8 8 8 7 7 7 8 9 8
3 1 6 9 9 12 12 10 11 8 3 5 7 3 0 3 3 11 13 10 12 18 21 20 17 19 22 23 23 24 25 24 25 28 30 30 29 29 30 30 29 26 25 24 22 21 22 22 22 22 24 24 24 24 22 21 20 18 17 16 15 14 14 14 14 13 12 12 12 11 11 11 11 11 10 10 10 10 10 9 9 8 7 8 8 9 9 9 9 9 9 9 9 9 9 10 10
4 2 3 5 4 8 11 8 7 5 2 3 5 1 3 1 8 15 13 10 10 14 19 20 20 20 22 24 25 25 25 25 27 30 30 29 27 28 29 28 27 26 25 24 22 23 23 22 22 22 24 25 26 25 24 23 21 19 18 18 16 16 16 15 15 14 13 13 13 13 13 13 13 13 13 13 13 13 13 12 11 10 9 10 10 11 11 11 11 11 11 11 11 11 11 12 12
4 1 1 3 3 5 6 4 5 4 2 3 7 2 5 6 16 15 8 11 11 13 18 20 21 21 22 25 26 26 26 26 28 28 28 28 28 28 28 28 27 26 25 24 24 25 24 23 23 22 24 26 26 25 25 24 22 21 20 19 18 18 18 17 16 15 15 15 15 15 15 15 15 15 15 15 15 15 15 15 14 13 12 13 13 13 13 13 13 13 13 14 14 14 14 14 14
3 1 1 0 1 5 4 1 4 4 4 5 6 3 5 8 15 12 8 13 13 15 18 20 22 22 23 24 26 28 27 26 26 26 26 27 29 29 29 28 29 28 27 26 25 24 24 24 24 24 24 25 26 26 26 25 24 22 21 20 20 19 19 19 18 18 18 17 17 17 17 17 16 16 16 17 17 17 17 17 16 15 16 16 16 16 16 16 16 15 16 16 16 16 16 16 16
2 2 2 1 2 4 6 2 7 5 3 6 6 3 6 8 12 11 12 16 16 18 19 20 24 23 23 24 26 27 27 27 27 27 26 27 30 31 29 29 29 29 29 27 26 26 26 25 25 25 25 25 26 26 26 26 25 24 23 22 21 21 21 21 20 20 19 19 19 19 18 18 18 17 17 18 19 19 19 18 18 18 18 19 19 19 18 18 18 17 17 18 18 17 17 17 15
1 1 2 1 3 3 5 3 7 5 1 4 5 2 3 6 6 5 10 15 17 18 19 21 25 25 25 25 25 26 27 28 30 29 27 27 29 29 28 28 28 28 28 28 28 28 27 27 27 27 27 26 26 26 26 27 26 26 25 24 23 23 23 22 21 21 21 21 20 20 19 18 19 19 19 19 20 20 20 20 19 19 20 20 21 20 20 19 19 19 18 18 19 19 19 18 15
0 1 3 3 4 4 4 3 5 5 1 3 5 3 5 7 5 2 3 7 13 18 21 22 23 25 27 26 27 27 28 30 30 29 27 27 27 27 27 27 28 28 28 29 29 29 28 28 28 28 28 27 27 27 27 27 27 27 27 26 26 25 25 24 23 23 22 22 21 21 20 19 19 20 20 20 21 21 22 21 20 20 21 22 22 22 22 21 20 20 18 18 19 20 20 17 15
7 7 5 3 2 3 4 4 3 5 3 3 5 4 6 11 13 12 8 5 9 16 20 21 21 24 26 28 29 29 30 31 29 27 26 28 28 28 28 28 28 29 29 29 29 30 30 30 30 29 29 28 28 28 27 28 28 28 28 27 27 27 26 25 25 25 24 23 22 22 21 21 21 20 21 21 22 22 23 23 22 21 22 23 24 24 23 22 22 19 16 17 19 21 20 16 15
10 7 5 4 3 4 4 4 3 2 3 4 6 6 6 11 15 15 13 10 10 13 16 19 22 25 27 28 31 31 32 32 28 26 27 29 29 28 28 29 30 30 30 29 29 30 31 32 33 32 31 30 29 29 29 29 29 30 29 29 29 29 28 27 27 26 25 24 23 22 22 22 22 22 22 22 22 22 22 21 21 21 21 21 22 24 24 23 23 19 16 17 19 19 19 17 18
6 4 4 5 4 4 4 3 5 2 2 5 5 6 7 11 13 12 10 9 11 14 15 19 22 26 29 30 32 33 34 33 29 28 29 29 28 28 29 30 31 32 32 31 31 31 31 32 33 33 32 31 32 32 31 30 31 31 31 30 30 30 29 28 27 27 26 24 23 23 23 23 23 23 23 22 22 21 20 20 20 21 22 20 20 22 23 23 24 20 17 18 19 18 18 20 17
6 6 5 5 5 5 4 3 3 1 3 4 3 4 8 10 13 14 9 7 11 17 18 20 24 26 28 29 32 34 34 34 31 31 31 29 28 29 30 31 32 33 32 32 32 31 31 31 33 33 32 33 34 33 32 31 31 31 30 29 29 29 28 27 27 26 25 24 23 23 22 23 23 23 23 23 22 21 20 20 20 21 22 22 21 20 19 21 22 19 17 19 20 17 18 20 15
4 4 4 5 4 3 5 3 2 1 4 3 1 2 8 10 13 17 12 11 17 24 23 25 28 27 26 28 30 31 33 33 32 32 32 30 29 29 30 31 32 32 32 32 33 32 32 32 32 33 33 34 34 33 33 32 31 30 29 28 27 27 26 26 25 24 24 24 23 23 22 22 22 22 22 22 22 21 21 20 20 21 22 22 21 21 19 20 21 20 20 21 20 18 19 19 14
3 4 4 4 2 2 4 3 2 1 1 2 1 2 6 7 9 14 16 18 23 28 27 28 29 28 29 30 30 29 29 32 33 33 32 31 30 30 30 31 31 32 33 34 35 34 34 34 34 33 33 34 33 33 33 32 31 29 29 28 27 27 26 25 25 25 24 25 24 24 23 22 22 22 21 21 21 20 21 20 20 20 21 22 21 21 21 19 19 21 22 21 19 19 20 18 12
4 4 5 3 2 3 4 1 2 2 2 1 1 4 6 6 8 11 11 12 18 25 24 25 29 31 32 32 31 31 29 30 33 33 33 32 31 30 29 29 30 31 33 34 35 35 35 34 35 34 33 33 33 33 33 32 32 31 31 30 30 30 29 29 28 27 26 26 25 24 24 23 23 22 21 20 20 19 20 21 22 20 19 20 21 22 22 19 17 18 21 22 20 20 20 16 11
5 5 7 6 5 4 2 0 1 2 3 2 1 3 7 4 8 11 8 4 9 17 16 19 27 29 31 32 33 35 35 34 34 34 33 33 32 31 30 30 30 32 33 33 33 34 34 34 34 34 33 34 33 33 33 33 33 33 33 33 33 33 32 32 30 28 27 26 25 24 23 23 23 23 23 22 21 21 20 20 22 22 20 19 20 20 19 18 18 17 15 17 20 21 19 17 13
4 6 9 7 6 4 2 2 1 2 4 3 1 5 7 5 6 9 7 5 8 11 11 16 25 26 27 31 33 35 37 38 38 37 35 34 34 34 33 32 32 33 32 30 31 32 34 35 34 34 34 35 34 34 33 34 34 35 35 34 34 34 34 32 29 27 26 26 26 25 24 23 23 23 23 23 22 22 22 22 22 22 20 19 18 18 18 19 19 17 14 14 16 17 18 17 15
4 5 10 9 7 7 6 4 4 4 2 3 0 2 5 6 7 6 3 5 8 9 10 14 21 26 28 32 34 36 38 39 40 41 40 39 38 38 38 36 33 32 30 29 30 31 32 33 34 34 34 34 34 34 34 34 35 36 35 35 34 34 34 32 29 28 28 28 27 27 26 25 24 23 23 22 23 23 22 23 22 20 19 17 16 17 18 20 18 14 16 17 14 14 15 14 13
5 4 7 7 6 6 6 5 5 2 3 6 3 1 4 6 6 3 1 5 10 9 9 12 17 25 29 32 35 36 36 37 39 41 42 42 42 41 41 38 33 30 28 28 29 29 29 31 32 33 33 34 34 34 35 35 35 36 36 36 36 35 34 33 32 31 31 31 30 29 28 27 25 24 22 22 22 22 22 22 20 20 20 20 20 19 18 21 18 13 13 16 14 15 14 13 14
3 6 6 3 3 2 1 3 2 2 3 8 4 3 5 8 6 3 1 5 9 8 7 11 18 24 27 29 32 31 30 31 33 36 37 38 39 39 39 37 34 32 29 27 27 28 30 30 31 32 32 33 33 34 35 35 35 36 36 36 36 36 35 34 34 34 34 33 32 31 30 28 26 24 22 21 21 20 21 21 20 20 21 21 21 19 17 18 19 17 15 15 14 14 15 16 16
7 7 5 6 4 4 3 1 3 2 6 6 3 6 4 8 6 7 4 5 7 7 7 9 17 23 24 24 25 24 24 25 26 29 30 31 32 34 36 36 36 35 32 29 28 28 29 30 31 31 31 31 32 32 33 34 35 35 36 36 36 35 35 35 35 35 35 34 34 33 30 28 26 24 22 21 21 20 20 21 21 20 19 18 18 18 15 13 16 18 18 18 14 13 15 18 16
8 5 4 3 1 3 3 3 3 3 7 3 2 4 4 8 7 5 5 6 6 8 8 8 14 19 20 17 15 15 16 20 22 25 25 25 25 27 32 34 35 35 34 31 29 29 29 29 30 31 31 31 31 31 31 32 34 34 35 35 35 34 34 35 35 35 35 34 33 32 30 28 26 24 23 22 21 20 20 20 21 20 19 18 17 19 15 11 13 15 16 18 14 12 15 15 14
5 4 5 4 0 1 1 2 1 5 7 2 2 2 4 10 7 3 6 7 7 10 12 15 17 18 17 12 10 10 11 13 17 21 23 22 21 22 26 30 31 32 32 32 30 29 29 28 29 30 30 30 30 30 30 31 32 32 32 33 33 33 33 34 34 34 33 33 32 30 29 27 25 24 23 21 19 19 19 19 20 20 18 16 14 16 17 15 13 10 11 14 11 12 15 16 17
7 6 7 7 4 4 7 4 2 5 5 2 2 2 4 7 4 7 9 9 15 17 19 23 23 24 24 19 16 14 10 9 10 14 18 20 18 18 20 23 26 30 31 31 31 30 30 29 29 30 29 29 30 30 30 30 30 30 30 30 30 30 31 32 32 31 31 30 30 29 27 25 24 23 21 19 18 17 17 17 18 18 16 15 15 15 16 18 15 11 11 13 13 15 17 18 18
7 4 5 6 5 6 6 5 3 4 3 2 2 2 4 3 3 8 10 13 19 19 18 21 24 27 29 28 27 24 17 11 9 9 11 14 16 16 16 18 21 25 28 30 31 30 31 30 30 30 30 30 30 30 30 30 29 29 29 29 29 29 30 30 30 29 29 28 28 26 25 24 23 21 20 18 17 17 17 16 18 18 16 17 18 17 15 16 16 15 15 18 18 19 19 19 18
4 3 4 5 6 4 3 3 4 3 2 2 3 4 4 4 6 9 8 11 16 18 18 19 24 27 27 28 30 29 26 19 14 12 10 10 12 13 14 15 17 20 22 25 27 28 29 29 30 30 30 30 30 30 30 30 29 29 29 29 28 28 29 29 29 28 27 26 25 25 24 23 22 21 19 18 17 16 16 16 17 17 15 16 18 18 16 15 17 18 19 20 19 17 17 20 22
2 3 6 5 4 6 4 2 0 3 3 3 2 5 5 3 8 10 7 6 10 12 14 17 24 25 23 26 27 28 30 28 22 17 12 11 10 10 11 13 14 16 18 20 22 23 25 25 27 28 28 29 30 31 31 30 30 30 30 29 29 28 28 28 28 27 26 25 24 24 23 22 22 21 20 19 18 17 17 19 18 17 17 17 17 18 18 17 19 20 18 18 17 17 19 22 24
5 5 8 3 3 3 3 2 2 2 5 4 1 6 6 3 6 6 4 6 10 11 9 12 19 19 19 25 25 23 25 27 24 18 15 13 11 10 10 11 12 13 15 17 18 20 22 23 25 26 27 28 29 30 30 31 31 31 30 30 29 28 28 27 27 26 25 25 24 24 23 23 22 21 20 19 18 17 19 21 19 17 19 18 16 19 20 20 20 19 18 18 20 23 23 21 19
4 6 6 5 3 3 2 2 3 3 4 5 3 4 5 6 6 3 3 8 12 14 10 7 10 14 19 24 23 20 21 23 22 19 16 15 13 12 11 11 11 12 12 14 15 17 19 21 24 25 27 28 28 29 29 29 30 30 29 28 27 27 27 27 26 26 25 25 24 23 22 22 21 20 20 19 18 19 21 21 17 16 20 20 18 19 18 18 18 18 20 22 24 25 21 16 14
2 3 5 3 3 4 3 3 4 4 4 5 3 4 4 7 7 5 6 9 9 12 11 7 10 16 21 23 21 17 17 19 20 19 17 16 15 13 11 11 11 11 11 12 12 13 15 17 20 23 25 26 27 28 27 27 27 27 26 26 26 26 26 26 25 25 25 24 23 22 21 20 19 19 19 18 18 20 22 19 15 15 19 20 19 20 18 18 20 21 22 22 22 21 16 12 10
3 4 6 4 2 2 2 2 2 4 4 4 2 5 7 6 5 9 10 10 11 13 11 8 11 14 17 21 20 15 12 15 18 18 17 18 17 13 11 10 10 10 11 11 11 12 12 13 15 16 19 21 22 24 24 25 25 25 25 25 25 26 25 25 24 23 23 22 21 21 20 20 19 19 19 19 19 20 18 16 15 18 21 18 18 20 22 22 22 21 19 17 16 14 11 10 9
8 7 6 6 4 4 3 5 3 3 3 5 3 6 9 5 5 9 10 11 12 12 8 8 12 14 13 13 15 13 11 12 15 16 18 19 18 13 11 10 10 11 11 11 11 11 10 10 10 11 12 14 16 18 20 21 22 23 23 23 23 23 23 23 23 22 21 21 21 21 21 20 19 17 18 20 21 20 20 18 16 19 21 21 20 19 19 19 18 17 15 14 12 11 10 9 8
Wind_Direction
293 293 306 313 329 327 327 350 6 4 58 84 314 198 245 222 179 150 134 135 133 201 167 142 153 155 152 190 188 164 124 149 163 136 182 168 143 147 153 154 153 156 154 146 137 113 104 104 130 143 130 133 138 134 140 132 104 83 71 78 86 90 95 94 93 92 92 89 85 82 80 82 84 87 88 90 90 89 90 89 89 88 88 88 88 88 88 88 88 88 89 89 89 88 86 85 85
293 290 302 308 329 331 321 10 52 338 38 38 287 180 261 312 155 174 173 202 177 145 138 134 144 154 146 138 146 115 113 143 153 144 146 146 143 149 154 153 154 157 154 148 139 115 103 99 122 148 139 133 139 139 147 140 108 93 79 85 89 89 92 92 91 88 86 86 83 82 83 83 83 87 90 92 91 92 95 94 92 91 89 88 88 89 90 89 89 89 90 91 89 86 84 84 86
292 286 299 305 329 347 4 23 66 72 50 329 276 243 257 159 188 199 195 189 129 125 125 128 133 142 128 113 118 108 153 165 156 142 140 148 151 153 154 153 155 156 157 151 139 117 101 94 108 142 142 136 141 143 148 151 115 110 97 91 88 85 86 89 93 90 86 85 80 81 84 85 86 88 89 90 90 90 93 96 96 92 91 90 89 89 90 90 90 91 92 92 89 84 83 84 87
301 284 289 311 340 1 52 41 115 114 62 240 279 275 236 183 200 213 186 144 130 123 120 125 115 118 132 119 114 110 148 164 162 150 150 156 158 156 153 153 156 156 159 156 141 120 100 88 94 136 146 143 146 146 149 163 155 122 107 97 88 84 83 84 93 92 89 90 84 80 83 88 90 90 90 89 89 88 90 94 95 92 90 89 87 88 90 90 91 92 94 92 90 87 86 87 89
317 303 284 281 347 21 85 66 112 102 223 196 287 279 238 205 197 187 156 149 141 114 123 137 113 114 116 105 105 143 146 155 162 160 157 157 159 159 154 153 157 158 160 159 145 124 102 88 88 134 149 147 147 150 151 162 179 132 111 106 90 83 83 80 89 92 90 95 93 88 87 90 91 92 91 89 89 89 90 91 93 92 88 87 86 87 89 90 91 91 92 89 86 86 90 92 94
330 340 336 43 79 88 112 85 191 221 234 173 174 263 232 217 186 156 154 161 172 293 164 164 153 138 109 83 90 133 135 153 167 165 158 155 159 160 155 155 157 160 163 162 150 132 111 93 88 131 154 154 149 151 154 159 164 130 118 110 93 85 83 81 87 91 90 93 97 97 95 91 91 93 91 90 89 89 90 91 93 92 88 88 89 88 90 91 92 92 90 87 85 85 88 92 95
339 355 22 101 79 51 103 169 216 240 240 174 177 244 226 199 174 151 155 172 208 225 194 193 160 136 107 101 117 133 131 157 165 162 159 155 159 160 158 157 160 162 165 166 155 143 125 99 97 122 156 162 157 154 153 160 154 143 136 113 100 92 86 85 84 89 94 94 98 101 99 98 98 94 92 92 91 93 93 92 93 92 90 89 89 90 91 91 91 91 90 90 88 86 87 91 94
350 357 48 104 51 31 87 182 240 216 232 225 213 248 236 180 167 156 164 180 184 192 192 178 157 124 148 150 151 151 134 147 155 160 160 157 158 161 162 160 163 165 166 169 160 154 143 107 106 112 145 163 166 161 154 162 166 168 171 124 110 97 86 87 84 85 92 94 100 103 103 105 105 97 96 97 96 98 95 93 93 91 88 85 85 87 89 89 89 91 93 93 91 88 88 91 94
357 350 58 93 94 52 40 310 273 242 251 270 250 257 237 174 167 161 169 188 178 180 171 164 158 143 175 163 164 158 141 148 154 160 161 159 161 162 163 163 166 168 169 171 167 164 155 123 113 118 138 160 171 170 160 163 172 180 171 136 126 104 88 87 88 86 93 96 100 106 110 110 106 103 101 101 99 97 95 93 92 88 84 82 81 83 84 85 86 88 89 93 92 91 90 91 92
2 13 93 92 102 84 340 289 267 265 250 261 262 254 203 172 167 165 168 182 190 175 168 167 176 171 162 158 160 160 152 154 159 162 164 162 163 165 164 163 168 173 174 173 173 172 164 145 124 131 141 160 177 182 175 167 172 175 145 143 149 114 94 90 93 92 98 98 99 107 113 114 109 107 106 104 101 96 95 93 91 87 84 82 79 78 80 80 80 81 82 86 87 89 91 91 90
1 26 86 87 79 139 225 252 262 274 268 290 284 240 182 172 164 166 167 162 183 169 169 176 194 156 150 164 165 162 159 159 165 166 166 167 167 169 166 164 170 179 183 180 179 178 173 162 141 144 149 161 181 193 194 178 172 169 150 158 158 117 100 97 99 98 104 102 104 111 114 119 116 113 110 105 101 97 95 92 91 89 85 83 80 78 77 77 76 76 76 77 79 81 83 83 80
350 8 61 100 129 183 194 227 262 286 302 317 272 191 174 174 166 175 174 165 176 175 182 183 181 160 138 216 177 166 164 163 169 172 171 171 172 172 170 169 173 182 189 190 186 184 180 173 162 159 160 165 177 192 204 195 181 171 163 169 157 114 106 105 111 109 106 109 115 118 118 123 122 118 113 107 104 100 97 94 93 92 89 85 82 81 77 77 77 76 75 73 75 75 75 72 66
18 138 82 123 181 165 163 197 267 315 315 277 202 174 172 177 184 192 170 164 177 175 195 193 184 169 151 241 187 174 169 168 169 176 177 172 176 175 173 176 177 184 190 196 194 190 186 180 182 177 175 172 177 187 199 201 194 183 177 174 156 122 121 121 124 115 104 113 120 120 121 125 126 124 118 114 109 104 101 98 99 97 94 91 87 85 82 80 78 76 75 73 73 72 71 67 62
39 146 114 132 84 117 159 199 272 328 280 258 189 168 173 183 197 201 174 166 192 186 191 199 190 177 181 200 201 184 171 171 172 176 180 175 179 177 176 181 184 186 190 199 200 196 191 188 191 190 188 180 182 186 187 194 196 196 191 182 166 150 145 141 134 122 113 119 120 116 125 132 134 135 131 125 118 112 108 103 101 100 97 96 93 90 86 81 77 75 72 72 71 70 69 64 60
43 109 104 115 56 320 193 224 163 146 246 240 173 172 174 187 196 204 198 187 199 197 189 191 189 190 207 190 205 190 175 173 174 174 181 178 179 179 180 184 188 190 192 200 201 202 197 194 196 197 195 186 186 186 185 190 194 198 196 191 180 168 164 160 149 135 125 126 126 123 131 140 143 147 143 136 130 121 116 112 106 103 100 98 95 91 87 81 74 69 67 66 68 67 65 62 58
38 99 66 102 172 242 205 195 132 134 256 226 170 176 173 193 197 202 213 200 199 201 193 186 190 206 236 198 204 186 178 176 173 175 182 181 181 181 183 186 190 192 195 201 203 204 202 200 200 201 199 192 192 189 190 191 191 193 187 185 180 172 172 171 161 148 139 137 137 138 140 147 150 154 154 147 142 134 128 124 117 108 102 98 94 91 85 80 74 65 60 57 58 60 59 57 54
348 104 73 107 194 207 199 196 174 167 265 255 186 183 171 191 202 204 209 201 205 202 195 192 198 210 233 216 222 186 181 178 175 177 184 185 184 184 187 189 192 194 196 201 203 204 205 204 202 203 202 196 196 194 194 194 192 191 187 185 182 179 176 173 170 158 150 150 151 153 151 154 156 158 160 159 155 150 146 138 129 119 110 103 95 93 86 80 74 64 56 50 46 48 50 49 46
302 99 139 201 189 195 188 185 191 169 316 278 207 198 182 183 192 190 190 197 209 202 199 202 205 211 223 231 233 192 184 181 178 179 184 187 188 189 190 192 194 197 198 201 202 204 206 206 204 204 203 199 198 198 196 196 195 193 192 191 187 186 181 177 173 164 160 162 164 165 162 163 164 165 168 169 169 166 162 154 141 131 121 114 104 98 92 83 75 63 54 45 37 33 34 36 35
235 102 152 213 198 215 210 187 189 191 305 274 220 211 201 201 185 180 191 193 191 195 206 214 213 214 219 227 222 193 186 185 184 183 186 190 192 194 195 195 196 199 201 202 203 204 206 207 207 206 205 201 199 199 198 196 195 194 193 191 188 186 183 178 173 169 169 170 173 175 175 174 173 175 176 176 178 179 176 169 159 152 139 126 118 109 98 86 74 60 48 36 29 21 17 18 19
215 144 157 244 247 268 265 242 231 249 273 275 241 214 211 214 190 184 192 172 185 206 209 212 215 214 216 219 208 193 190 189 189 188 190 193 196 199 200 200 200 201 203 205 206 206 206 207 208 208 208 206 200 200 199 195 192 190 188 186 185 183 182 177 171 169 172 177 181 183 186 186 187 185 184 184 184 187 187 184 183 180 167 151 138 124 108 86 66 43 31 21 13 7 4 2 2
206 164 173 219 273 298 277 273 272 283 270 266 243 197 211 211 195 189 173 144 225 229 216 215 219 212 208 211 203 193 194 194 194 194 195 197 200 202 205 206 205 205 205 206 210 210 209 208 208 207 209 209 204 201 200 197 192 189 186 184 185 185 186 184 177 172 170 177 183 189 194 195 199 200 198 197 195 196 196 198 202 207 207 202 204 202 205 107 7 360 1 357 355 353 352 352 352
218 197 177 207 241 291 283 295 322 314 285 246 216 187 208 196 197 198 180 177 228 232 225 223 225 217 212 214 205 197 198 199 199 199 200 201 203 205 207 208 209 209 207 209 212 214 213 211 210 209 210 211 207 203 201 200 197 194 192 191 194 194 193 194 190 182 178 182 180 183 192 200 209 213 217 216 215 213 210 212 215 221 228 235 239 242 259 270 302 323 329 332 335 338 337 339 340
237 257 175 215 248 261 279 299 307 310 272 226 215 207 200 180 202 208 198 211 223 236 238 230 226 221 219 219 210 204 204 205 207 208 208 206 205 206 206 208 210 211 211 212 214 215 216 215 213 212 211 211 209 206 203 202 203 201 200 201 202 202 203 203 202 196 193 197 193 184 187 200 209 217 231 234 233 230 227 226 226 233 236 240 247 254 264 269 283 294 307 315 320 323 325 328 329
262 258 191 219 253 259 286 309 308 305 266 244 233 211 195 184 200 213 215 223 223 236 254 236 225 218 217 216 216 217 216 215 217 218 217 216 212 210 210 211 212 213 214 214 215 217 218 218 217 215 215 213 211 210 207 205 205 205 206 207 206 207 210 209 213 215 211 211 214 212 206 203 210 222 237 244 246 241 241 240 236 242 247 250 253 258 264 270 279 282 293 304 310 312 311 314 318
244 229 217 233 273 279 301 312 309 305 278 249 220 212 203 196 197 222 231 230 226 230 249 247 224 216 216 217 219 222 221 222 221 220 220 221 220 217 217 217 215 215 215 214 216 218 219 220 220 220 219 216 213 213 213 211 209 209 209 211 211 213 216 217 221 226 226 223 222 228 231 225 226 234 241 249 253 250 249 248 247 248 253 259 259 259 263 269 276 280 285 289 294 298 297 301 307
211 213 239 256 290 297 308 307 306 304 276 216 199 219 213 197 201 251 244 240 235 232 238 245 225 217 218 219 222 224 225 225 223 221 221 222 222 221 222 221 220 219 217 216 217 219 220 221 223 223 223 221 217 216 217 216 216 216 215 216 218 220 222 224 229 232 234 232 229 232 238 241 243 242 246 252 255 258 255 251 252 253 256 263 265 263 264 269 276 278 279 279 283 287 291 294 299
185 214 244 229 259 296 308 290 287 293 276 214 196 179 114 181 172 249 246 243 240 232 232 235 227 223 221 221 224 225 229 231 228 224 222 222 223 224 225 224 223 221 219 219 218 218 220 222 224 225 225 224 222 221 221 220 222 223 222 222 222 225 226 228 233 235 237 238 238 236 237 242 247 247 249 254 258 260 260 254 252 254 259 263 265 266 266 270 273 274 276 279 282 284 288 292 295
191 222 244 232 244 286 295 277 277 277 273 231 195 164 166 133 177 239 238 235 237 228 227 230 228 228 225 224 225 226 230 231 230 227 224 225 226 227 228 227 225 223 222 220 219 219 221 223 225 226 225 225 224 224 225 225 226 227 227 227 225 226 228 230 234 236 238 240 241 242 241 242 245 248 249 253 257 259 262 259 254 255 259 260 263 265 268 270 272 274 276 277 279 280 283 286 288
224 202 231 267 274 280 277 265 262 247 252 216 154 181 271 180 232 240 235 235 240 229 225 227 229 231 228 226 225 227 230 230 228 229 231 231 232 233 233 233 230 228 226 223 223 223 224 224 226 227 225 225 226 226 227 228 229 229 229 229 228 228 229 232 234 237 240 241 244 246 246 246 247 248 248 249 251 254 259 260 260 258 256 257 258 260 264 268 270 273 274 276 276 277 278 280 282
211 181 148 312 313 276 269 253 234 205 222 180 142 231 271 241 240 237 231 236 237 229 226 227 229 231 230 228 228 229 231 230 231 233 236 235 235 237 237 238 236 234 231 228 226 225 225 226 226 227 226 226 227 227 228 230 230 231 230 230 230 230 232 235 238 240 242 244 248 249 249 250 250 248 247 248 248 250 254 257 261 260 257 256 257 258 260 262 265 269 272 274 275 276 278 278 281
168 149 125 54 222 261 290 224 200 189 213 190 153 230 263 256 250 243 241 243 238 233 230 228 229 231 232 231 230 232 233 233 236 237 237 238 237 237 238 239 239 237 235 230 228 227 227 228 228 228 227 227 228 228 229 230 232 233 233 233 233 234 235 238 241 242 244 246 249 250 251 251 250 248 246 247 249 250 251 254 256 258 258 256 256 258 258 260 262 265 269 271 273 276 278 279 282
90 161 238 2 173 265 306 244 190 204 224 183 163 225 256 267 270 262 249 242 237 235 234 232 231 231 231 233 232 233 235 235 237 237 237 237 237 237 238 238 239 239 237 234 231 231 230 229 230 230 229 229 229 230 231 232 234 235 236 236 236 238 239 240 241 243 244 245 246 247 249 251 251 250 249 249 250 251 252 253 254 256 257 257 258 258 258 261 261 263 266 269 272 273 274 276 280
25 143 202 241 181 226 301 272 206 213 233 184 190 225 258 276 284 272 247 235 231 233 236 236 234 233 231 232 234 235 237 236 236 238 237 237 238 238 239 238 239 240 239 238 235 234 232 231 231 231 230 230 231 231 232 233 234 236 237 238 238 239 240 240 241 242 242 242 244 245 246 248 250 250 251 251 251 252 253 254 254 254 255 258 259 259 259 259 260 262 264 267 271 272 273 275 279
204 186 202 224 211 205 231 262 226 199 197 226 210 208 239 265 278 280 268 239 227 231 237 238 236 235 233 233 235 237 238 239 239 240 240 240 240 240 240 240 240 241 241 239 238 237 235 235 234 233 232 231 232 232 233 234 235 236 237 238 239 239 239 239 238 239 239 239 241 243 246 248 249 250 251 251 252 252 254 254 255 255 255 257 258 260 259 258 259 260 265 275 278 277 279 284 288
193 198 201 221 255 247 229 249 226 175 192 235 206 210 240 260 269 266 267 254 233 239 243 244 244 241 238 237 238 239 241 243 245 245 244 243 242 242 242 241 241 241 241 240 240 239 237 237 237 236 235 233 232 233 233 234 235 235 235 236 237 237 236 235 235 235 235 236 238 240 244 246 247 249 250 251 253 253 256 256 257 257 256 258 260 261 261 262 263 264 272 281 282 285 287 286 283
199 191 191 189 200 254 245 253 282 167 191 236 214 215 224 241 261 264 257 247 241 252 254 248 248 246 243 241 241 243 244 247 250 249 247 245 243 244 243 243 242 240 240 240 240 238 237 236 237 236 234 234 233 233 233 233 233 233 233 233 234 234 234 234 233 234 235 235 237 239 241 244 246 249 250 252 254 256 259 262 264 264 263 263 263 265 266 267 268 268 271 273 276 286 291 286 278
190 170 200 202 192 247 254 251 318 12 189 253 236 229 239 240 257 264 250 242 240 246 251 249 248 247 245 243 243 245 247 249 251 249 247 246 245 245 244 244 243 242 240 239 238 237 236 235 235 234 233 233 233 233 233 231 231 230 230 230 231 233 234 235 235 235 236 236 237 239 241 243 245 248 251 254 256 259 262 265 268 270 273 273 268 267 269 273 274 273 271 274 281 284 287 290 287
179 180 197 216 206 237 250 227 306 43 173 269 292 246 257 254 261 263 236 212 239 239 240 248 251 251 250 248 247 248 250 251 250 249 247 246 245 244 244 244 244 244 242 241 240 238 236 235 235 234 232 233 233 233 234 233 232 231 231 232 233 236 237 238 239 238 240 241 242 244 244 246 248 250 253 255 257 260 263 266 268 270 276 280 279 274 268 270 277 280 275 274 281 283 281 285 287
164 165 165 214 218 238 262 248 296 132 177 254 312 230 254 256 260 263 243 223 245 248 243 248 252 252 252 253 254 252 251 250 247 246 246 244 244 244 244 245 245 245 245 244 243 240 238 236 234 233 232 232 233 234 235 234 234 234 235 237 240 243 244 244 246 247 248 247 247 248 250 250 251 252 254 256 258 261 263 267 270 270 272 275 279 281 272 266 267 271 274 274 280 283 282 285 286
164 142 148 212 213 181 243 259 299 285 154 216 183 266 262 257 265 268 250 236 248 255 252 251 251 251 253 256 258 258 254 252 248 245 245 244 244 244 244 245 245 246 245 244 243 242 239 236 234 234 233 233 233 234 235 236 237 238 239 242 246 248 250 251 251 250 248 246 246 247 249 251 253 254 255 256 258 260 261 265 268 269 270 270 273 278 280 275 265 261 265 268 274 276 276 286 286
212 179 164 177 180 194 228 275 285 284 345 80 96 312 278 238 250 263 252 235 247 255 251 248 248 249 252 253 255 257 255 252 250 248 246 245 244 243 243 245 246 246 245 244 243 242 240 238 237 236 235 235 234 234 235 236 237 238 239 241 244 246 247 247 246 243 242 243 243 243 246 250 254 257 258 260 261 262 262 262 267 270 268 267 267 268 273 277 272 267 263 256 258 267 270 277 279
240 213 175 170 186 210 249 289 13 331 308 291 123 275 274 252 241 248 256 247 247 253 249 245 247 248 248 249 250 253 253 251 250 249 247 246 244 243 243 245 248 248 247 245 244 243 242 241 240 238 237 237 236 235 235 236 237 237 238 238 240 242 242 242 241 241 242 245 246 246 248 250 253 256 258 262 263 264 264 263 266 271 272 270 264 261 266 274 274 277 279 258 250 262 265 266 273
241 211 168 172 203 224 235 164 168 222 258 285 144 222 265 296 253 239 255 276 262 260 261 250 249 249 247 249 251 252 251 250 249 249 247 246 244 242 242 246 250 250 249 248 246 243 241 241 241 239 239 239 239 238 237 237 237 238 239 240 241 243 244 245 246 247 249 251 253 253 253 252 252 254 256 259 261 262 263 263 262 265 271 274 272 272 272 277 279 277 279 265 251 259 258 259 269
234 203 156 169 206 224 218 183 216 238 275 293 237 208 269 279 250 232 236 283 278 270 271 262 253 250 249 251 253 253 252 251 250 249 248 247 246 247 248 251 254 252 250 249 246 244 241 240 240 240 240 240 241 240 240 240 239 240 241 242 243 245 247 250 252 254 256 257 257 257 257 257 255 254 255 257 259 260 260 261 261 263 269 272 277 281 272 272 282 275 260 257 255 260 257 254 258
237 178 139 171 194 212 213 201 227 293 349 264 230 90 273 265 256 249 174 256 263 261 263 264 256 250 248 250 253 255 257 256 254 253 252 252 252 253 254 255 254 250 248 247 245 245 243 240 240 241 241 241 241 240 241 242 242 243 243 244 246 247 249 252 254 256 257 259 259 260 260 260 260 259 259 259 260 261 261 262 260 259 264 267 271 276 270 267 271 266 254 252 255 263 260 252 251
206 121 86 74 80 68 138 191 196 43 296 251 209 156 246 267 246 203 197 247 246 256 259 259 260 255 250 250 253 257 259 257 255 254 254 255 255 255 255 254 249 244 244 245 244 244 243 241 241 241 242 242 242 241 241 242 243 244 245 246 248 249 251 252 253 255 256 258 260 260 261 262 264 267 267 266 265 263 263 262 259 252 251 257 262 264 270 267 257 257 256 245 249 257 250 247 252
122 107 70 52 48 47 54 70 84 93 264 267 207 174 216 277 247 177 199 220 201 224 249 259 264 261 257 257 258 259 258 255 252 252 253 254 255 254 252 248 243 241 241 241 241 242 241 241 241 242 244 245 245 243 242 243 243 245 246 247 249 251 252 252 253 254 256 258 260 262 265 267 269 271 270 268 266 264 262 260 258 253 249 253 255 254 269 274 254 256 253 242 249 255 242 244 249
128 124 116 91 1 28 35 4 69 205 246 280 266 171 167 251 244 164 214 235 199 205 221 242 256 260 263 262 259 257 254 251 248 247 248 249 252 252 246 242 238 237 238 238 238 241 242 242 242 243 243 245 246 246 244 244 244 245 246 248 250 251 252 254 254 256 257 259 262 264 267 270 271 270 268 267 265 264 264 260 257 254 250 250 251 247 255 261 247 248 247 247 256 248 234 241 245
142 137 141 148 285 37 213 246 170 231 247 232 195 151 188 243 252 229 257 270 245 225 221 233 245 257 263 254 248 260 255 248 246 244 244 245 249 250 244 238 234 233 234 235 236 240 243 243 243 242 242 243 245 246 245 245 245 246 247 248 249 250 252 254 255 256 258 260 262 265 266 268 268 267 267 266 265 263 264 261 258 257 255 256 254 244 244 247 239 234 237 244 249 233 230 239 246
170 165 168 174 168 179 205 216 224 244 253 234 181 165 243 270 274 231 232 243 244 242 241 246 253 260 264 259 257 266 265 259 262 252 245 242 241 243 241 235 231 231 232 234 236 239 241 242 242 242 241 241 242 243 244 245 245 246 247 248 249 250 251 253 255 257 258 260 262 264 265 266 265 266 265 264 264 260 258 255 252 253 252 249 244 235 241 244 234 222 226 235 236 232 236 243 245
183 159 148 179 187 185 195 199 209 227 247 271 232 191 206 225 256 233 231 252 261 264 262 261 263 263 264 264 261 260 261 266 280 273 256 242 234 231 231 229 227 228 230 233 235 237 239 240 241 241 240 239 241 241 242 243 245 246 247 248 248 249 250 252 254 256 258 260 261 262 264 264 263 264 263 262 259 253 252 248 247 252 243 232 234 233 237 238 229 227 235 242 240 234 240 250 250
208 119 132 208 202 147 125 188 183 161 215 254 221 224 218 209 275 274 255 267 274 273 271 266 263 262 261 262 261 257 254 256 266 272 268 248 232 222 221 221 221 224 226 230 232 235 237 238 239 240 240 240 241 242 242 243 244 245 246 247 247 248 249 251 252 254 255 257 258 259 259 258 259 259 256 255 252 250 249 238 238 249 240 229 235 231 223 224 228 233 237 239 236 230 239 252 255
159 148 185 213 174 124 106 228 33 87 212 249 206 246 287 307 286 275 250 263 280 271 267 260 257 259 258 259 260 255 249 250 254 257 259 254 236 223 221 221 224 227 229 232 234 235 237 238 239 239 240 241 241 242 242 242 243 244 244 245 246 247 248 249 251 252 253 254 253 253 252 251 251 249 249 250 245 243 240 231 235 246 236 228 233 226 218 224 230 232 234 234 235 241 250 254 255
135 188 194 145 93 116 116 204 330 90 223 270 246 240 269 271 266 274 242 249 270 267 254 251 257 257 251 253 257 253 247 247 247 243 245 249 239 229 230 231 235 238 239 240 240 240 240 240 240 240 240 241 241 242 242 241 241 242 243 244 245 246 247 249 250 250 250 250 248 247 246 245 243 243 246 244 240 240 236 234 244 248 234 231 234 227 223 224 222 223 232 240 249 256 258 255 256
147 184 175 136 164 210 144 168 198 178 228 274 304 281 256 217 232 297 276 240 249 258 256 253 258 250 245 250 255 256 250 242 235 231 236 240 233 231 236 239 243 244 244 243 240 239 239 239 239 238 237 237 237 238 238 239 239 240 242 243 244 246 248 248 248 247 246 245 244 243 242 241 240 241 241 238 242 239 225 225 244 250 236 232 228 218 213 213 213 223 238 247 253 257 256 252 254
75 136 166 165 169 185 175 166 173 173 215 250 297 318 260 218 202 197 230 241 241 253 262 259 246 242 244 248 255 264 257 235 221 221 229 231 227 231 236 239 243 243 243 241 236 235 235 236 238 238 238 237 236 236 237 237 238 239 240 241 243 244 245 245 244 243 243 241 240 238 236 237 237 237 239 241 238 222 210 222 246 237 218 213 210 210 217 227 232 240 247 249 249 250 249 243 237
141 153 178 193 144 141 171 172 152 149 181 211 264 283 259 239 193 185 208 233 242 246 249 251 254 259 259 253 254 265 258 227 215 217 225 227 226 231 236 238 241 241 242 240 235 235 234 235 237 237 238 239 238 239 238 238 238 237 237 238 239 240 241 241 239 237 236 236 235 233 232 232 231 233 235 231 219 211 223 249 247 221 215 222 226 225 233 241 242 243 244 241 238 235 229 218 208
176 178 184 180 151 121 163 218 214 117 166 186 183 268 268 248 194 195 198 212 233 244 238 242 262 278 288 271 256 256 247 225 218 220 225 227 227 232 237 237 238 238 239 238 235 234 232 231 229 226 226 228 230 232 233 234 234 232 233 233 234 236 236 235 233 231 230 229 227 227 228 226 225 227 226 222 223 234 250 253 233 219 224 238 244 242 241 240 234 231 228 221 217 211 202 194 189